,,Stat6,,Stat2,,Stat8,,Stat9,,Stat10,,Wind1,,Wind1,
time,status,PA1M_AVG,status,PR1M_SUM,status,RH1M_AVG,status,SR1M_AVG,status,TA1M_AVG,status,W1dAve1m,status,W1sAve1m,
2007-04-18, 00:00:01,VALID,918.68,VALID,0,VALID,100,VALID,0.0339617,VALID,20.5782,VALID,56,VALID,0.132068,
2007-04-18, 00:01:00,VALID,918.678,VALID,0,VALID,100,VALID,0.0169808,VALID,20.562,VALID,56,VALID,0,
2007-04-18, 00:02:01,VALID,918.671,VALID,0,VALID,100,VALID,0.0169808,VALID,20.5552,VALID,56,VALID,0,
2007-04-18, 00:03:00,VALID,918.645,VALID,0,VALID,100,VALID,0.0509425,VALID,20.5649,VALID,56,VALID,0,
2007-04-18, 00:04:01,VALID,918.62,VALID,0,VALID,100,VALID,0.0339617,VALID,20.5547,VALID,56,VALID,0,
2007-04-18, 00:05:01,VALID,918.587,VALID,0,VALID,100,VALID,0.0169808,VALID,20.5525,VALID,56,VALID,0.00419207,
2007-04-18, 00:06:01,VALID,918.561,VALID,0,VALID,100,VALID,0.0339617,VALID,20.5449,VALID,56,VALID,0.119606,
2007-04-18, 00:07:01,VALID,918.537,VALID,0,VALID,100,VALID,0.0339617,VALID,20.5455,VALID,56,VALID,0.183308,
2007-04-18, 00:08:01,VALID,918.534,VALID,0,VALID,100,VALID,0.0169808,VALID,20.5295,VALID,56,VALID,0.219477,
2007-04-18, 00:09:00,VALID,918.525,VALID,0,VALID,100,VALID,0,VALID,20.5227,VALID,57,VALID,0.352628,
2007-04-18, 00:10:01,VALID,918.531,VALID,0,VALID,100,VALID,0.0509425,VALID,20.5092,VALID,60,VALID,0.445703,
2007-04-18, 00:11:01,VALID,918.522,VALID,0,VALID,100,VALID,0.0169808,VALID,20.5192,VALID,60,VALID,0.0210193,
2007-04-18, 00:12:01,VALID,918.525,VALID,0,VALID,100,VALID,0.0679233,VALID,20.526,VALID,60,VALID,0.015625,
2007-04-18, 00:13:01,VALID,918.503,VALID,0,VALID,100,VALID,0.0339617,VALID,20.5295,VALID,60,VALID,0.238186,
2007-04-18, 00:14:01,VALID,918.486,VALID,0,VALID,100,VALID,-0.0339617,VALID,20.5435,VALID,60,VALID,0.203869,
2007-04-18, 00:15:01,VALID,918.472,VALID,0,VALID,100,VALID,-0.0679233,VALID,20.5311,VALID,60,VALID,0.28267,
2007-04-18, 00:16:01,VALID,918.442,VALID,0,VALID,100,VALID,-0.0679233,VALID,20.5078,VALID,60,VALID,0.103849,
2007-04-18, 00:17:01,VALID,918.438,VALID,0,VALID,100,VALID,-0.0679233,VALID,20.4976,VALID,60,VALID,0.0499238,
2007-04-18, 00:18:01,VALID,918.405,VALID,0,VALID,100,VALID,-0.0679233,VALID,20.4916,VALID,60,VALID,0.251243,
2007-04-18, 00:19:00,VALID,918.377,VALID,0,VALID,100,VALID,-0.0849042,VALID,20.4886,VALID,60,VALID,0.214844,
2007-04-18, 00:20:00,VALID,918.346,VALID,0,VALID,100,VALID,-0.0679233,VALID,20.4889,VALID,60,VALID,0.167225,
2007-04-18, 00:21:00,VALID,918.31,VALID,0,VALID,100,VALID,-0.101885,VALID,20.4719,VALID,60,VALID,0.287246,
2007-04-18, 00:22:00,VALID,918.286,VALID,0,VALID,100,VALID,-0.0679233,VALID,20.4691,VALID,60,VALID,0.325195,
2007-04-18, 00:23:00,VALID,918.253,VALID,0,VALID,100,VALID,-0.0849042,VALID,20.4661,VALID,60,VALID,0.0609756,
2007-04-18, 00:24:00,VALID,918.231,VALID,0,VALID,100,VALID,-0.0679233,VALID,20.4686,VALID,60,VALID,0.134487,
2007-04-18, 00:25:00,VALID,918.201,VALID,0,VALID,100,VALID,-0.0849042,VALID,20.4883,VALID,60,VALID,0.177148,
2007-04-18, 00:26:00,VALID,918.163,VALID,0,VALID,100,VALID,-0.0339617,VALID,20.5041,VALID,60,VALID,0.0874256,
2007-04-18, 00:27:00,VALID,918.13,VALID,0,VALID,100,VALID,-0.0509425,VALID,20.5276,VALID,60,VALID,0.0632267,
2007-04-18, 00:28:00,VALID,918.106,VALID,0,VALID,100,VALID,-0.0679233,VALID,20.517,VALID,60,VALID,0.284339,
2007-04-18, 00:29:00,VALID,918.067,VALID,0,VALID,100,VALID,-0.0509425,VALID,20.5076,VALID,60,VALID,0.429297,
2007-04-18, 00:30:00,VALID,918.024,VALID,0,VALID,100,VALID,-0.0509425,VALID,20.4816,VALID,86,VALID,0.411979,
2007-04-18, 00:31:00,VALID,918.001,VALID,0,VALID,100,VALID,-0.0849042,VALID,20.4564,VALID,112,VALID,0.703497,
2007-04-18, 00:32:00,VALID,917.959,VALID,0,VALID,100,VALID,-0.0509425,VALID,20.4434,VALID,112,VALID,0.468928,
2007-04-18, 00:33:00,VALID,917.948,VALID,0,VALID,100,VALID,-0.0169808,VALID,20.4532,VALID,96,VALID,0.677591,
2007-04-18, 00:34:00,VALID,917.938,VALID,0,VALID,100,VALID,-0.0849042,VALID,20.4394,VALID,80,VALID,0.622275,
2007-04-18, 00:35:00,VALID,917.922,VALID,0,VALID,100,VALID,-0.0509425,VALID,20.4297,VALID,77,VALID,0.679688,
2007-04-18, 00:36:00,VALID,917.923,VALID,0,VALID,100,VALID,-0.0509425,VALID,20.401,VALID,91,VALID,0.579055,
2007-04-18, 00:37:00,VALID,917.916,VALID,0,VALID,100,VALID,-0.101885,VALID,20.3783,VALID,94,VALID,0.570884,
2007-04-18, 00:38:00,VALID,917.906,VALID,0,VALID,100,VALID,-0.0849042,VALID,20.3528,VALID,94,VALID,0.564546,
2007-04-18, 00:39:00,VALID,917.897,VALID,0,VALID,100,VALID,-0.0509425,VALID,20.3296,VALID,99,VALID,0.815163,
2007-04-18, 00:40:00,VALID,917.895,VALID,0,VALID,100,VALID,-0.0849042,VALID,20.2971,VALID,101,VALID,0.850174,
2007-04-18, 00:41:00,VALID,917.867,VALID,0,VALID,100,VALID,-0.0509425,VALID,20.2771,VALID,90,VALID,0.647852,
2007-04-18, 00:42:00,VALID,917.839,VALID,0,VALID,100,VALID,-0.0679233,VALID,20.2874,VALID,79,VALID,0.619474,
2007-04-18, 00:43:00,VALID,917.828,VALID,0,VALID,100,VALID,-0.0849042,VALID,20.2612,VALID,85,VALID,0.453852,
2007-04-18, 00:44:00,VALID,917.793,VALID,0,VALID,100,VALID,0,VALID,20.2369,VALID,92,VALID,0.753646,
2007-04-18, 00:45:00,VALID,917.774,VALID,0,VALID,100,VALID,0.0169808,VALID,20.2245,VALID,91,VALID,0.640451,
2007-04-18, 00:46:00,VALID,917.756,VALID,0,VALID,100,VALID,0.0339617,VALID,20.2112,VALID,87,VALID,0.84282,
2007-04-18, 00:47:00,VALID,917.743,VALID,0,VALID,100,VALID,0.0169808,VALID,20.1882,VALID,87,VALID,0.825174,
2007-04-18, 00:48:00,VALID,917.736,VALID,0,VALID,100,VALID,0.0339617,VALID,20.1718,VALID,88,VALID,0.782986,
2007-04-18, 00:49:00,VALID,917.744,VALID,0,VALID,100,VALID,0.0339617,VALID,20.1585,VALID,110,VALID,0.942406,
2007-04-18, 00:50:00,VALID,917.745,VALID,0,VALID,100,VALID,0.0339617,VALID,20.1456,VALID,118,VALID,1.19111,
2007-04-18, 00:51:00,VALID,917.735,VALID,0,VALID,100,VALID,0.0679233,VALID,20.1328,VALID,115,VALID,1.02184,
2007-04-18, 00:52:00,VALID,917.721,VALID,0,VALID,100,VALID,0.0509425,VALID,20.1398,VALID,135,VALID,1.04516,
2007-04-18, 00:53:00,VALID,917.717,VALID,0,VALID,100,VALID,0.0339617,VALID,20.1361,VALID,139,VALID,1.12773,
2007-04-18, 00:54:00,VALID,917.696,VALID,0,VALID,100,VALID,0.0509425,VALID,20.1426,VALID,141,VALID,1.12736,
2007-04-18, 00:55:00,VALID,917.664,VALID,0,VALID,100,VALID,0.0679233,VALID,20.1326,VALID,142,VALID,0.986133,
2007-04-18, 00:56:00,VALID,917.641,VALID,0,VALID,100,VALID,0.0339617,VALID,20.1555,VALID,138,VALID,0.849564,
2007-04-18, 00:57:00,VALID,917.628,VALID,0,VALID,100,VALID,0.0679233,VALID,20.1456,VALID,138,VALID,1.15718,
2007-04-18, 00:58:00,VALID,917.594,VALID,0,VALID,100,VALID,0.0339617,VALID,20.1393,VALID,137,VALID,0.999814,
2007-04-18, 00:59:00,VALID,917.578,VALID,0,VALID,100,VALID,-0.0509425,VALID,20.1506,VALID,137,VALID,1.36681,
2007-04-18, 01:00:00,VALID,917.535,VALID,0,VALID,100,VALID,-0.0339617,VALID,20.1438,VALID,137,VALID,1.03437,
2007-04-18, 01:01:00,VALID,917.506,VALID,0,VALID,100,VALID,-0.0339617,VALID,20.1476,VALID,136,VALID,1.06777,
2007-04-18, 01:02:00,VALID,917.471,VALID,0,VALID,100,VALID,-0.0169808,VALID,20.1441,VALID,155,VALID,0.57848,
2007-04-18, 01:03:00,VALID,917.448,VALID,0,VALID,100,VALID,-0.0169808,VALID,20.1473,VALID,151,VALID,0.797763,
2007-04-18, 01:04:00,VALID,917.415,VALID,0,VALID,100,VALID,-0.0169808,VALID,20.1541,VALID,155,VALID,0.988653,
2007-04-18, 01:05:00,VALID,917.39,VALID,0,VALID,100,VALID,-0.0339617,VALID,20.1506,VALID,157,VALID,0.72168,
2007-04-18, 01:06:00,VALID,917.369,VALID,0,VALID,100,VALID,-0.0339617,VALID,20.1438,VALID,164,VALID,0.468387,
2007-04-18, 01:07:00,VALID,917.351,VALID,0,VALID,100,VALID,0,VALID,20.1438,VALID,164,VALID,0.431463,
2007-04-18, 01:08:00,VALID,917.328,VALID,0,VALID,100,VALID,0,VALID,20.1279,VALID,164,VALID,0.504084,
2007-04-18, 01:09:00,VALID,917.32,VALID,0,VALID,100,VALID,0,VALID,20.1276,VALID,164,VALID,0.22237,
2007-04-18, 01:10:00,VALID,917.303,VALID,0,VALID,100,VALID,-0.0339617,VALID,20.1184,VALID,167,VALID,0.455602,
2007-04-18, 01:11:00,VALID,917.283,VALID,0,VALID,100,VALID,-0.0339617,VALID,20.1052,VALID,171,VALID,0.472049,
2007-04-18, 01:12:00,VALID,917.266,VALID,0,VALID,100,VALID,-0.0339617,VALID,20.0949,VALID,173,VALID,0.37407,
2007-04-18, 01:13:00,VALID,917.258,VALID,0,VALID,100,VALID,-0.0339617,VALID,20.0852,VALID,175,VALID,0.29375,
2007-04-18, 01:14:00,VALID,917.243,VALID,0,VALID,100,VALID,-0.0339617,VALID,20.0892,VALID,178,VALID,0.418713,
2007-04-18, 01:15:00,VALID,917.228,VALID,0,VALID,100,VALID,-0.0339617,VALID,20.0952,VALID,257,VALID,0.522675,
2007-04-18, 01:16:00,VALID,917.223,VALID,0,VALID,100,VALID,-0.0509425,VALID,20.1284,VALID,283,VALID,0.343572,
2007-04-18, 01:17:00,VALID,917.215,VALID,0,VALID,100,VALID,-0.0339617,VALID,20.1279,VALID,283,VALID,0.309048,
2007-04-18, 01:18:00,VALID,917.215,VALID,0,VALID,100,VALID,-0.0169808,VALID,20.1179,VALID,283,VALID,0.305489,
2007-04-18, 01:19:00,VALID,917.202,VALID,0,VALID,100,VALID,0,VALID,20.0982,VALID,283,VALID,0.313953,
2007-04-18, 01:20:00,VALID,917.189,VALID,0,VALID,100,VALID,-0.0339617,VALID,20.1084,VALID,283,VALID,0.0935595,
2007-04-18, 01:21:00,VALID,917.163,VALID,0,VALID,100,VALID,-0.0509425,VALID,20.0859,VALID,283,VALID,0,
2007-04-18, 01:22:00,VALID,917.145,VALID,0,VALID,100,VALID,-0.0339617,VALID,20.0727,VALID,283,VALID,0,
2007-04-18, 01:23:00,VALID,917.132,VALID,0,VALID,100,VALID,-0.0169808,VALID,20.0662,VALID,283,VALID,0,
2007-04-18, 01:24:00,VALID,917.106,VALID,0,VALID,100,VALID,-0.0849042,VALID,20.0497,VALID,283,VALID,0,
2007-04-18, 01:25:00,VALID,917.081,VALID,0,VALID,100,VALID,-0.0339617,VALID,20.0435,VALID,283,VALID,0.132999,
2007-04-18, 01:26:00,VALID,917.069,VALID,0,VALID,100,VALID,-0.0339617,VALID,20.0078,VALID,230,VALID,0.539844,
2007-04-18, 01:27:00,VALID,917.043,VALID,0,VALID,100,VALID,-0.0169808,VALID,19.9621,VALID,187,VALID,0.582217,
2007-04-18, 01:28:00,VALID,917.01,VALID,0,VALID,100,VALID,-0.0339617,VALID,19.9529,VALID,186,VALID,0.313772,
2007-04-18, 01:29:00,VALID,916.987,VALID,0,VALID,100,VALID,-0.0169808,VALID,19.9269,VALID,186,VALID,0.0891768,
2007-04-18, 01:30:00,VALID,916.965,VALID,0,VALID,100,VALID,-0.0169808,VALID,19.894,VALID,179,VALID,0.473656,
2007-04-18, 01:31:00,VALID,916.956,VALID,0,VALID,100,VALID,-0.0509425,VALID,19.8778,VALID,155,VALID,0.594893,
2007-04-18, 01:32:00,VALID,916.943,VALID,0,VALID,100,VALID,-0.0509425,VALID,19.8653,VALID,145,VALID,0.870276,
2007-04-18, 01:33:00,VALID,916.952,VALID,0,VALID,100,VALID,-0.0339617,VALID,19.8585,VALID,147,VALID,0.760298,
2007-04-18, 01:34:00,VALID,916.954,VALID,0,VALID,100,VALID,-0.0169808,VALID,19.8615,VALID,169,VALID,0.898251,
2007-04-18, 01:35:00,VALID,916.957,VALID,0,VALID,100,VALID,-0.0339617,VALID,19.8843,VALID,172,VALID,1.14551,
2007-04-18, 01:36:00,VALID,916.949,VALID,0,VALID,100,VALID,-0.0169808,VALID,19.8845,VALID,166,VALID,0.919207,
2007-04-18, 01:37:00,VALID,916.925,VALID,0,VALID,100,VALID,-0.0339617,VALID,19.894,VALID,171,VALID,0.625355,
2007-04-18, 01:38:00,VALID,916.903,VALID,0,VALID,100,VALID,-0.0339617,VALID,19.894,VALID,167,VALID,1.41908,
2007-04-18, 01:39:00,VALID,916.888,VALID,0,VALID,100,VALID,-0.0509425,VALID,19.9135,VALID,170,VALID,1.04135,
2007-04-18, 01:40:00,VALID,916.864,VALID,0,VALID,100,VALID,0,VALID,19.9132,VALID,162,VALID,1.20713,
2007-04-18, 01:41:00,VALID,916.843,VALID,0,VALID,100,VALID,-0.0339617,VALID,19.9135,VALID,159,VALID,0.776456,
2007-04-18, 01:42:00,VALID,916.824,VALID,0,VALID,100,VALID,-0.0169808,VALID,19.9042,VALID,157,VALID,0.955031,
2007-04-18, 01:43:00,VALID,916.798,VALID,0,VALID,100,VALID,-0.0679233,VALID,19.8843,VALID,156,VALID,0.803779,
2007-04-18, 01:44:00,VALID,916.791,VALID,0,VALID,100,VALID,0,VALID,19.881,VALID,148,VALID,0.892624,
2007-04-18, 01:45:00,VALID,916.775,VALID,0,VALID,100,VALID,-0.0169808,VALID,19.8745,VALID,144,VALID,1.07508,
2007-04-18, 01:46:00,VALID,916.768,VALID,0,VALID,100,VALID,0,VALID,19.8548,VALID,137,VALID,0.982986,
2007-04-18, 01:47:00,VALID,916.742,VALID,0,VALID,100,VALID,-0.0169808,VALID,19.8358,VALID,129,VALID,0.862326,
2007-04-18, 01:48:00,VALID,916.735,VALID,0,VALID,100,VALID,-0.0169808,VALID,19.8323,VALID,141,VALID,0.966146,
2007-04-18, 01:49:00,VALID,916.73,VALID,0,VALID,100,VALID,-0.0509425,VALID,19.8161,VALID,142,VALID,0.767149,
2007-04-18, 01:50:00,VALID,916.728,VALID,0,VALID,100,VALID,-0.0169808,VALID,19.7969,VALID,153,VALID,0.690476,
2007-04-18, 01:51:00,VALID,916.721,VALID,0,VALID,100,VALID,0,VALID,19.7966,VALID,154,VALID,0.915777,
2007-04-18, 01:52:00,VALID,916.714,VALID,0,VALID,100,VALID,0,VALID,19.7934,VALID,155,VALID,1.01476,
2007-04-18, 01:53:00,VALID,916.698,VALID,0,VALID,100,VALID,0,VALID,19.8194,VALID,150,VALID,1.48801,
2007-04-18, 01:54:00,VALID,916.685,VALID,0,VALID,100,VALID,0,VALID,19.8356,VALID,150,VALID,1.01017,
2007-04-18, 01:55:00,VALID,916.659,VALID,0,VALID,100,VALID,0.0169808,VALID,19.8453,VALID,150,VALID,0.869922,
2007-04-18, 01:56:00,VALID,916.64,VALID,0,VALID,100,VALID,0,VALID,19.8516,VALID,171,VALID,1.1612,
2007-04-18, 01:57:00,VALID,916.624,VALID,0,VALID,100,VALID,0.0339617,VALID,19.8575,VALID,174,VALID,1.31709,
2007-04-18, 01:58:00,VALID,916.623,VALID,0,VALID,100,VALID,0.0169808,VALID,19.884,VALID,175,VALID,1.16738,
2007-04-18, 01:59:00,VALID,916.615,VALID,0,VALID,100,VALID,-0.0169808,VALID,19.894,VALID,168,VALID,0.950267,
2007-04-18, 02:00:00,VALID,916.626,VALID,0,VALID,100,VALID,0,VALID,19.8965,VALID,179,VALID,0.780878,
2007-04-18, 02:01:00,VALID,916.624,VALID,0,VALID,100,VALID,0.0169808,VALID,19.8902,VALID,178,VALID,0.429315,
2007-04-18, 02:02:00,VALID,916.625,VALID,0,VALID,100,VALID,-0.0169808,VALID,19.897,VALID,173,VALID,0.892442,
2007-04-18, 02:03:00,VALID,916.623,VALID,0,VALID,100,VALID,-0.0169808,VALID,19.8965,VALID,170,VALID,0.897266,
2007-04-18, 02:04:00,VALID,916.607,VALID,0,VALID,100,VALID,0,VALID,19.9032,VALID,172,VALID,0.915153,
2007-04-18, 02:05:00,VALID,916.611,VALID,0,VALID,100,VALID,0,VALID,19.9105,VALID,176,VALID,0.450107,
2007-04-18, 02:06:00,VALID,916.616,VALID,0,VALID,100,VALID,0.0169808,VALID,19.9032,VALID,173,VALID,1.1048,
2007-04-18, 02:07:00,VALID,916.614,VALID,0,VALID,100,VALID,0,VALID,19.8965,VALID,166,VALID,1.30558,
2007-04-18, 02:08:00,VALID,916.599,VALID,0,VALID,100,VALID,0.0169808,VALID,19.894,VALID,169,VALID,0.954942,
2007-04-18, 02:09:00,VALID,916.596,VALID,0,VALID,100,VALID,0,VALID,19.89,VALID,162,VALID,1.11374,
2007-04-18, 02:10:00,VALID,916.583,VALID,0,VALID,100,VALID,0,VALID,19.8803,VALID,161,VALID,0.283668,
2007-04-18, 02:11:00,VALID,916.576,VALID,0,VALID,100,VALID,-0.0169808,VALID,19.878,VALID,168,VALID,0.661272,
2007-04-18, 02:12:00,VALID,916.567,VALID,0,VALID,100,VALID,-0.101885,VALID,19.859,VALID,189,VALID,0.582403,
2007-04-18, 02:13:00,VALID,916.576,VALID,0,VALID,100,VALID,-0.118866,VALID,19.8598,VALID,178,VALID,0.380145,
2007-04-18, 02:14:00,VALID,916.583,VALID,0,VALID,100,VALID,-0.118866,VALID,19.8533,VALID,188,VALID,0.842188,
2007-04-18, 02:15:00,VALID,916.599,VALID,0,VALID,100,VALID,-0.0849042,VALID,19.8336,VALID,189,VALID,1.08873,
2007-04-18, 02:16:00,VALID,916.601,VALID,0,VALID,100,VALID,-0.101885,VALID,19.8231,VALID,183,VALID,0.730283,
2007-04-18, 02:17:00,VALID,916.61,VALID,0,VALID,100,VALID,-0.0849042,VALID,19.8196,VALID,183,VALID,0.266715,
2007-04-18, 02:18:00,VALID,916.623,VALID,0,VALID,100,VALID,-0.0679233,VALID,19.8268,VALID,183,VALID,0.0435268,
2007-04-18, 02:19:00,VALID,916.64,VALID,0,VALID,100,VALID,-0.0849042,VALID,19.8174,VALID,180,VALID,0.20484,
2007-04-18, 02:20:00,VALID,916.649,VALID,0,VALID,100,VALID,-0.0849042,VALID,19.8074,VALID,147,VALID,0.284455,
2007-04-18, 02:21:00,VALID,916.654,VALID,0,VALID,100,VALID,-0.0509425,VALID,19.8041,VALID,151,VALID,0.103261,
2007-04-18, 02:22:00,VALID,916.676,VALID,0,VALID,100,VALID,-0.118866,VALID,19.8139,VALID,154,VALID,0.657203,
2007-04-18, 02:23:00,VALID,916.676,VALID,0,VALID,100,VALID,-0.118866,VALID,19.8141,VALID,160,VALID,0.3038,
2007-04-18, 02:24:00,VALID,916.686,VALID,0,VALID,100,VALID,-0.101885,VALID,19.8106,VALID,163,VALID,0.0851562,
2007-04-18, 02:25:00,VALID,916.669,VALID,0,VALID,100,VALID,-0.118866,VALID,19.8338,VALID,163,VALID,0.00228659,
2007-04-18, 02:26:00,VALID,916.668,VALID,0,VALID,100,VALID,-0.101885,VALID,19.8401,VALID,163,VALID,0,
2007-04-18, 02:27:00,VALID,916.657,VALID,0,VALID,100,VALID,-0.101885,VALID,19.8401,VALID,163,VALID,0.068859,
2007-04-18, 02:28:00,VALID,916.656,VALID,0,VALID,100,VALID,-0.118866,VALID,19.8336,VALID,162,VALID,0.397321,
2007-04-18, 02:29:00,VALID,916.651,VALID,0,VALID,100,VALID,-0.0849042,VALID,19.8271,VALID,155,VALID,0.531795,
2007-04-18, 02:30:00,VALID,916.639,VALID,0,VALID,100,VALID,-0.118866,VALID,19.8271,VALID,146,VALID,0.424851,
2007-04-18, 02:31:00,VALID,916.626,VALID,0,VALID,100,VALID,-0.101885,VALID,19.8141,VALID,138,VALID,0.607465,
2007-04-18, 02:32:00,VALID,916.624,VALID,0,VALID,100,VALID,-0.118866,VALID,19.8174,VALID,128,VALID,0.709263,
2007-04-18, 02:33:00,VALID,916.633,VALID,0,VALID,100,VALID,-0.101885,VALID,19.8239,VALID,123,VALID,0.894985,
2007-04-18, 02:34:00,VALID,916.626,VALID,0,VALID,100,VALID,-0.0849042,VALID,19.8436,VALID,122,VALID,1.04512,
2007-04-18, 02:35:00,VALID,916.649,VALID,0,VALID,100,VALID,-0.0509425,VALID,19.8231,VALID,144,VALID,0.734557,
2007-04-18, 02:36:00,VALID,916.652,VALID,0,VALID,100,VALID,-0.101885,VALID,19.8328,VALID,117,VALID,1.00728,
2007-04-18, 02:37:00,VALID,916.667,VALID,0,VALID,100,VALID,-0.0849042,VALID,19.8333,VALID,98,VALID,1.49893,
2007-04-18, 02:38:00,VALID,916.668,VALID,0,VALID,100,VALID,-0.101885,VALID,19.8263,VALID,98,VALID,1.15661,
2007-04-18, 02:39:00,VALID,916.671,VALID,0,VALID,100,VALID,-0.101885,VALID,19.8236,VALID,104,VALID,0.677641,
2007-04-18, 02:40:00,VALID,916.653,VALID,0,VALID,100,VALID,-0.0849042,VALID,19.8171,VALID,131,VALID,0.57984,
2007-04-18, 02:41:00,VALID,916.638,VALID,0,VALID,100,VALID,-0.0679233,VALID,19.8239,VALID,83,VALID,1.08903,
2007-04-18, 02:42:00,VALID,916.62,VALID,0,VALID,100,VALID,-0.118866,VALID,19.8204,VALID,54,VALID,1.16768,
2007-04-18, 02:43:00,VALID,916.6,VALID,0,VALID,100,VALID,-0.0849042,VALID,19.8234,VALID,73,VALID,0.556323,
2007-04-18, 02:44:00,VALID,916.581,VALID,0,VALID,100,VALID,-0.0339617,VALID,19.8131,VALID,108,VALID,0.713281,
2007-04-18, 02:45:00,VALID,916.575,VALID,0,VALID,100,VALID,-0.0339617,VALID,19.8001,VALID,116,VALID,0.269436,
2007-04-18, 02:46:00,VALID,916.564,VALID,0,VALID,100,VALID,-0.0169808,VALID,19.7869,VALID,117,VALID,0.403299,
2007-04-18, 02:47:00,VALID,916.564,VALID,0,VALID,100,VALID,-0.0339617,VALID,19.7769,VALID,119,VALID,0.238653,
2007-04-18, 02:48:00,VALID,916.542,VALID,0,VALID,100,VALID,-0.0169808,VALID,19.7899,VALID,119,VALID,0.150568,
2007-04-18, 02:49:00,VALID,916.545,VALID,0,VALID,100,VALID,-0.0339617,VALID,19.7934,VALID,118,VALID,0.703125,
2007-04-18, 02:50:00,VALID,916.541,VALID,0,VALID,100,VALID,-0.0679233,VALID,19.7739,VALID,114,VALID,0.707812,
2007-04-18, 02:51:00,VALID,916.567,VALID,0,VALID,100,VALID,-0.0339617,VALID,19.7804,VALID,112,VALID,0.443598,
2007-04-18, 02:52:00,VALID,916.561,VALID,0,VALID,100,VALID,-0.0339617,VALID,19.7934,VALID,107,VALID,0.459579,
2007-04-18, 02:53:00,VALID,916.567,VALID,0,VALID,100,VALID,-0.0509425,VALID,19.8034,VALID,107,VALID,0.316502,
2007-04-18, 02:54:00,VALID,916.55,VALID,0,VALID,100,VALID,-0.0339617,VALID,19.8099,VALID,101,VALID,0.327553,
2007-04-18, 02:55:00,VALID,916.546,VALID,0,VALID,100,VALID,-0.0169808,VALID,19.7969,VALID,96,VALID,0.360085,
2007-04-18, 02:56:00,VALID,916.53,VALID,0,VALID,100,VALID,0,VALID,19.7642,VALID,95,VALID,0.769159,
2007-04-18, 02:57:00,VALID,916.51,VALID,0,VALID,100,VALID,-0.0169808,VALID,19.7283,VALID,91,VALID,0.865412,
2007-04-18, 02:58:00,VALID,916.495,VALID,0,VALID,100,VALID,0,VALID,19.7028,VALID,92,VALID,0.75,
2007-04-18, 02:59:00,VALID,916.488,VALID,0,VALID,100,VALID,-0.0339617,VALID,19.6993,VALID,50,VALID,0.704484,
2007-04-18, 03:00:00,VALID,916.484,VALID,0,VALID,100,VALID,-0.0339617,VALID,19.6993,VALID,49,VALID,0.602653,
2007-04-18, 03:01:00,VALID,916.476,VALID,0,VALID,100,VALID,-0.0849042,VALID,19.6928,VALID,48,VALID,0.531072,
2007-04-18, 03:02:00,VALID,916.472,VALID,0,VALID,100,VALID,-0.0339617,VALID,19.6833,VALID,48,VALID,0.347565,
2007-04-18, 03:03:00,VALID,916.46,VALID,0,VALID,100,VALID,-0.0509425,VALID,19.6701,VALID,52,VALID,0.228468,
2007-04-18, 03:04:00,VALID,916.488,VALID,0,VALID,100,VALID,-0.0509425,VALID,19.6474,VALID,92,VALID,0.544588,
2007-04-18, 03:05:00,VALID,916.499,VALID,0,VALID,100,VALID,-0.0509425,VALID,19.6244,VALID,118,VALID,0.525484,
2007-04-18, 03:06:00,VALID,916.512,VALID,0,VALID,100,VALID,-0.0509425,VALID,19.6182,VALID,119,VALID,0.126563,
2007-04-18, 03:07:00,VALID,916.541,VALID,0,VALID,100,VALID,-0.0509425,VALID,19.6347,VALID,63,VALID,0.364281,
2007-04-18, 03:08:00,VALID,916.57,VALID,0,VALID,100,VALID,-0.0509425,VALID,19.6412,VALID,16,VALID,0.555753,
2007-04-18, 03:09:00,VALID,916.589,VALID,0,VALID,100,VALID,-0.0339617,VALID,19.6279,VALID,21,VALID,0.831676,
2007-04-18, 03:10:00,VALID,916.61,VALID,0,VALID,100,VALID,0,VALID,19.6279,VALID,22,VALID,0.760356,
2007-04-18, 03:11:00,VALID,916.625,VALID,0,VALID,100,VALID,-0.0169808,VALID,19.6147,VALID,22,VALID,0.61701,
2007-04-18, 03:12:00,VALID,916.65,VALID,0,VALID,100,VALID,0,VALID,19.598,VALID,22,VALID,0.334339,
2007-04-18, 03:13:00,VALID,916.665,VALID,0,VALID,100,VALID,-0.0169808,VALID,19.6022,VALID,22,VALID,0.444222,
2007-04-18, 03:14:00,VALID,916.688,VALID,0,VALID,100,VALID,0,VALID,19.5982,VALID,19,VALID,0.575945,
2007-04-18, 03:15:00,VALID,916.698,VALID,0,VALID,100,VALID,-0.0169808,VALID,19.6112,VALID,18,VALID,0.604469,
2007-04-18, 03:16:00,VALID,916.69,VALID,0,VALID,100,VALID,-0.0169808,VALID,19.6212,VALID,18,VALID,0.425586,
2007-04-18, 03:17:00,VALID,916.692,VALID,0,VALID,100,VALID,0,VALID,19.602,VALID,18,VALID,0.103516,
2007-04-18, 03:18:00,VALID,916.694,VALID,0,VALID,100,VALID,0,VALID,19.592,VALID,18,VALID,0.385617,
2007-04-18, 03:19:00,VALID,916.696,VALID,0,VALID,100,VALID,0,VALID,19.5915,VALID,18,VALID,0.275298,
2007-04-18, 03:20:00,VALID,916.702,VALID,0,VALID,100,VALID,-0.0169808,VALID,19.5885,VALID,18,VALID,0.340661,
2007-04-18, 03:21:00,VALID,916.71,VALID,0,VALID,100,VALID,0,VALID,19.5915,VALID,18,VALID,0.219914,
2007-04-18, 03:22:00,VALID,916.706,VALID,0,VALID,100,VALID,-0.0169808,VALID,19.6177,VALID,18,VALID,0.27753,
2007-04-18, 03:23:00,VALID,916.707,VALID,0,VALID,100,VALID,-0.0169808,VALID,19.6279,VALID,16,VALID,0.568359,
2007-04-18, 03:24:00,VALID,916.711,VALID,0,VALID,100,VALID,-0.0339617,VALID,19.6212,VALID,9,VALID,0.438101,
2007-04-18, 03:25:00,VALID,916.72,VALID,0,VALID,100,VALID,-0.0169808,VALID,19.6404,VALID,9,VALID,0.347917,
2007-04-18, 03:26:00,VALID,916.725,VALID,0,VALID,100,VALID,-0.0169808,VALID,19.6601,VALID,9,VALID,0.18564,
2007-04-18, 03:27:00,VALID,916.729,VALID,0,VALID,100,VALID,-0.0169808,VALID,19.6731,VALID,9,VALID,0.0550686,
2007-04-18, 03:28:00,VALID,916.724,VALID,0,VALID,100,VALID,0,VALID,19.6796,VALID,9,VALID,0,
2007-04-18, 03:29:00,VALID,916.733,VALID,0,VALID,100,VALID,-0.0679233,VALID,19.6931,VALID,9,VALID,0,
2007-04-18, 03:30:00,VALID,916.745,VALID,0,VALID,100,VALID,-0.0339617,VALID,19.6993,VALID,9,VALID,0,
2007-04-18, 03:31:00,VALID,916.756,VALID,0,VALID,100,VALID,0,VALID,19.712,VALID,9,VALID,0,
2007-04-18, 03:32:00,VALID,916.756,VALID,0,VALID,100,VALID,-0.0169808,VALID,19.7415,VALID,9,VALID,0.0803571,
2007-04-18, 03:33:00,VALID,916.743,VALID,0,VALID,100,VALID,-0.0679233,VALID,19.7545,VALID,9,VALID,0,
2007-04-18, 03:34:00,VALID,916.754,VALID,0,VALID,100,VALID,-0.0509425,VALID,19.7642,VALID,9,VALID,0,
2007-04-18, 03:35:00,VALID,916.75,VALID,0,VALID,100,VALID,-0.0339617,VALID,19.7674,VALID,9,VALID,0.158008,
2007-04-18, 03:36:00,VALID,916.758,VALID,0,VALID,100,VALID,-0.0339617,VALID,19.7804,VALID,9,VALID,0.146181,
2007-04-18, 03:37:00,VALID,916.764,VALID,0,VALID,100,VALID,0,VALID,19.7837,VALID,25,VALID,0.49343,
2007-04-18, 03:38:00,VALID,916.758,VALID,0,VALID,100,VALID,-0.0169808,VALID,19.7677,VALID,36,VALID,0.858445,
2007-04-18, 03:39:00,VALID,916.784,VALID,0,VALID,100,VALID,-0.0339617,VALID,19.748,VALID,37,VALID,0.916061,